Address 0x6d1fcc54cd7edd3fa40209d5de823508f28eade1

Overview

Balance:
0.405816700355818222 BNB

BNB Value:
$11.50 (@ $28.34/BNB)

Token:
Txn Hash
Block
From
To
Value [Txn Fee]
0xbd68e883fcf9be0cace2ebfdea4a49a6004690d984cea68ab856d11da7e8854016122752020-10-24 3:07:167 days 21 hrs ago0x6d1fcc54cd7edd3fa40209d5de823508f28eade1OUT PancakeSwap: Router0 BNB0.004062053
0x9f3c2cacd14b60be10e8f77dd7f53a76f39b59ba50e0e53bd2a4abafb55dbdb616104132020-10-24 1:34:017 days 23 hrs ago0x6d1fcc54cd7edd3fa40209d5de823508f28eade1OUT 0x3c3f2049cc17c136a604be23cf7e42745edf3b910 BNB0.01106816
0x4b2eb5a1f27cbec02855ce622a48093707de5c3f327cad89a67f513d7ebec34516104022020-10-24 1:33:287 days 23 hrs ago0x6d1fcc54cd7edd3fa40209d5de823508f28eade1OUT PancakeSwap: Router0 BNB0.004010694
0xc3590d78691b3ed3068abf3af2b66f95c2d376796b029680aa6bba802df010a016076992020-10-23 23:18:198 days 1 hr ago0x6d1fcc54cd7edd3fa40209d5de823508f28eade1OUT 0x3c3f2049cc17c136a604be23cf7e42745edf3b910 BNB0.01178446
0x6d2cd996660080e50cb605f489116ba4fa8fc92d5ec7d58bef3f67f285e8ceb016076872020-10-23 23:17:438 days 1 hr ago0x6d1fcc54cd7edd3fa40209d5de823508f28eade1OUT PancakeSwap: CAKE Token0 BNB0.0008886
0xdf5f22fad06fdb988be87a14fc281ecb642e6ff8ee9e1d648e32eefea1e04c9c16076362020-10-23 23:15:108 days 1 hr agoBinance: Hot Wallet IN 0x6d1fcc54cd7edd3fa40209d5de823508f28eade10.198 BNB0.00042
0x2d16e1c0f101e808acd0d3f4972aa06a087674fc92fd5b2cb8a7dea5dd22a73415753282020-10-22 20:19:329 days 4 hrs ago0x6d1fcc54cd7edd3fa40209d5de823508f28eade1OUT0xc915f959cfe4efac0f740347de3f1b77b5fa261a7.546603573246099 BNB0.000483
0xc58b808ef7d9f2ccee29653f1d237abf9112ff3ee8ec2c1f7aeedc4f5d03837815752992020-10-22 20:18:059 days 4 hrs ago0x6d1fcc54cd7edd3fa40209d5de823508f28eade1OUT PancakeSwap: Router0 BNB0.002628854
0x4dcf9520720be9fa3b06a6d2cd658ae11dac938db0d8e0cab452dd72cb19b6f315752822020-10-22 20:17:149 days 4 hrs ago0x6d1fcc54cd7edd3fa40209d5de823508f28eade1OUT PancakeSwap: Router0 BNB0.004329474
0xdf4bddc5c3b35b60cb952efa13b43db1750ab4ec5bba09d84a8462eb5e673bd715752472020-10-22 20:15:299 days 4 hrs ago0x6d1fcc54cd7edd3fa40209d5de823508f28eade1OUT PancakeSwap: Router0 BNB0.002628578
0xa83f97330891499fe67646a0d4f49c6644d6e9599215ba876ed4ef8222e6106815752372020-10-22 20:14:599 days 4 hrs ago0x6d1fcc54cd7edd3fa40209d5de823508f28eade1OUT 0x73feaa1ee314f8c655e354234017be2193c9e24e0 BNB0.00270554
0x1d6aced2de4ee55ce1d1485a4c387aa9d822dca581f43919abb77dd998a1ec8515752012020-10-22 20:13:119 days 4 hrs ago0x6d1fcc54cd7edd3fa40209d5de823508f28eade1OUT PancakeSwap: Router0 BNB0.002628578
0xf6d9b75f5b35e76c46a355ae989b4d7735a3c58fe174183cbd9d3c5e6c85f27915751842020-10-22 20:12:209 days 4 hrs ago0x6d1fcc54cd7edd3fa40209d5de823508f28eade1OUT 0x73feaa1ee314f8c655e354234017be2193c9e24e0 BNB0.00209096
0x021d94fa34360d539f060c9c2183006eaf211d0166069e4f200c3f1e8aac6c6815751792020-10-22 20:12:059 days 4 hrs ago0x6d1fcc54cd7edd3fa40209d5de823508f28eade1OUT 0x73feaa1ee314f8c655e354234017be2193c9e24e0 BNB0.0014259
0xdd62d853e0505ec44fc25db5f9ff38dcd0a99327c4cdca710c5633f1f45f7e7015751602020-10-22 20:11:089 days 4 hrs ago0x6d1fcc54cd7edd3fa40209d5de823508f28eade1OUT 0x73feaa1ee314f8c655e354234017be2193c9e24e0 BNB0.0029838
0xea3de043aff8a0159a1cc7675697f170599e3e9e64c56dccc45519c803499cee15750862020-10-22 20:07:269 days 4 hrs ago0x6d1fcc54cd7edd3fa40209d5de823508f28eade1OUT 0x73feaa1ee314f8c655e354234017be2193c9e24e0 BNB0.00054004
0x2c847a15b90ae53787d5618e292e0ecd32db6ab7702e9b62fe0a6f0398e1556015750692020-10-22 20:06:359 days 4 hrs ago0x6d1fcc54cd7edd3fa40209d5de823508f28eade1OUT 0x92e8ceb7eaed69fb6e4d9da43f605d2610214e680 BNB0.00201378
0x1ad25648ca22e010b176996c76c7fd385ffc9ccb3a454a83068178210275567215282382020-10-21 5:01:3710 days 19 hrs ago0x6d1fcc54cd7edd3fa40209d5de823508f28eade1OUT 0x92e8ceb7eaed69fb6e4d9da43f605d2610214e680 BNB0.0020078
0xcbcb67d289030271b9081d85b06a1d7907126ae4fc7fa3c957d89550ba65796015282222020-10-21 5:00:4910 days 19 hrs ago0x6d1fcc54cd7edd3fa40209d5de823508f28eade1OUT PancakeSwap: SYRUP Token0 BNB0.0008886
0x38245572ac0b4ef82e8f80ae36dcbc114bcad2ef3db8858b23478787a63bdb0e15270622020-10-21 4:02:4910 days 20 hrs ago0x6d1fcc54cd7edd3fa40209d5de823508f28eade1OUT PancakeSwap: Router0 BNB0.002638951
0xde07e66619ab84f950a50d854bcf09a823ca2d8ca1853cf840befb85b06d078d15269812020-10-21 3:58:4610 days 20 hrs ago0x6d1fcc54cd7edd3fa40209d5de823508f28eade1OUT 0x73feaa1ee314f8c655e354234017be2193c9e24e0 BNB0.00215256
0xca6b6811be3074ed44d094d61d7373e80a38af06119ba92aa4e2f0fd363eae4c15269462020-10-21 3:57:0110 days 20 hrs ago0x6d1fcc54cd7edd3fa40209d5de823508f28eade1OUT 0xafd61dc94f11a70ae110dc0e0f2061af5633061a0 BNB0.0019633
0x2d1b6c9643c8c04421b8672b7ff57c593f46828420689077aaebe55de02d46ad15269302020-10-21 3:56:1310 days 20 hrs ago0x6d1fcc54cd7edd3fa40209d5de823508f28eade1OUT 0x73feaa1ee314f8c655e354234017be2193c9e24e0 BNB0.00252658
0x813c2808e6fdd09a8dbe207984c3f53d10e302e0c03f3869a3dc9d8b780a7f6315157492020-10-20 18:37:1011 days 6 hrs ago0x6d1fcc54cd7edd3fa40209d5de823508f28eade1OUT 0xafd61dc94f11a70ae110dc0e0f2061af5633061a0 BNB0.00200736
0x4bbb7ef2813370d6f938acc3c7112c9d59b3df25c0cb4403772d521ed5f5c53014925522020-10-19 23:17:1812 days 1 hr ago0x6d1fcc54cd7edd3fa40209d5de823508f28eade1OUT 0x73feaa1ee314f8c655e354234017be2193c9e24e0 BNB0.00229152
[ Download CSV Export 
Latest 11 internal transactions
Parent Txn Hash Block From To Value
0xbd68e883fcf9be0cace2ebfdea4a49a6004690d984cea68ab856d11da7e8854016122752020-10-24 3:07:167 days 21 hrs ago PancakeSwap: Router0x6d1fcc54cd7edd3fa40209d5de823508f28eade10.239630667355818222 BNB
0xc58b808ef7d9f2ccee29653f1d237abf9112ff3ee8ec2c1f7aeedc4f5d03837815752992020-10-22 20:18:059 days 4 hrs ago PancakeSwap: Router0x6d1fcc54cd7edd3fa40209d5de823508f28eade13.433409063089695946 BNB
0x4dcf9520720be9fa3b06a6d2cd658ae11dac938db0d8e0cab452dd72cb19b6f315752822020-10-22 20:17:149 days 4 hrs ago PancakeSwap: Router0x6d1fcc54cd7edd3fa40209d5de823508f28eade13.446154119123096559 BNB
0xdf4bddc5c3b35b60cb952efa13b43db1750ab4ec5bba09d84a8462eb5e673bd715752472020-10-22 20:15:299 days 4 hrs ago PancakeSwap: Router0x6d1fcc54cd7edd3fa40209d5de823508f28eade10.171988587063246506 BNB
0x1d6aced2de4ee55ce1d1485a4c387aa9d822dca581f43919abb77dd998a1ec8515752012020-10-22 20:13:119 days 4 hrs ago PancakeSwap: Router0x6d1fcc54cd7edd3fa40209d5de823508f28eade10.371118482083600388 BNB
0x38245572ac0b4ef82e8f80ae36dcbc114bcad2ef3db8858b23478787a63bdb0e15270622020-10-21 4:02:4910 days 20 hrs ago PancakeSwap: Router0x6d1fcc54cd7edd3fa40209d5de823508f28eade10.00041722685476964 BNB
0x978b6ad1ec220fc0106036626bb441ea7061596e43386657a67c9a921247a57912264262020-10-10 17:31:0021 days 7 hrs ago PancakeSwap: Router0x6d1fcc54cd7edd3fa40209d5de823508f28eade10.026398426593593172 BNB
0x5bdc951e7111ea315934db8b3caa8a496e11e3bb1fbe45bc6f6921a9e5eb239312264112020-10-10 17:30:1521 days 7 hrs ago PancakeSwap: Router0x6d1fcc54cd7edd3fa40209d5de823508f28eade116.69034633295794944 BNB
0xca0ca64b10689dcf9ec10b844a03d02d8c018d41b64caf4a9974d2656d3c94ad12217002020-10-10 13:34:4221 days 11 hrs ago PancakeSwap: Router0x6d1fcc54cd7edd3fa40209d5de823508f28eade10.459587137030574751 BNB
0xcc8f931ba40735e8552fa9ac1e51dae199bb5824f783677ee177dfc051bd121712215782020-10-10 13:28:3621 days 11 hrs ago PancakeSwap: Router0x6d1fcc54cd7edd3fa40209d5de823508f28eade115.657928226976488416 BNB
0x0ee47bfee401eab9e75a858b733076574a73d9592c1f461f595d52feee5d4d7e11769142020-10-09 0:15:2223 days 23 mins ago PancakeSwap: Router0x6d1fcc54cd7edd3fa40209d5de823508f28eade10.000820583464137043 BNB
[ Download CSV Export 
Loading

Contract Name:
0 BNB

Compiler Version
0

Optimization Enabled:
0 BNB

Other Settings:
-NA-
Block Transaction Gas Used Reward
Age Block Fee Address BC Fee Address Voting Power Jailed Incoming
Block Uncle Number Difficulty Gas Used Reward
Loading
Loading
Make sure to use the "Vote Down" button for any spammy posts, and the "Vote Up" for interesting conversations.